• In Hungary
  • List of Countries
  • For 7 days
  • Water Temperature
  • Satellite Maps
  • Weather Map
  • News
  • Weather Widgets
  • user-avatar
    Login

    Hourly Weather Netesma

    Today, 15 August, Wednesday

    Time Temperature Precipitation Wind Pressure Humidity
    00:00 +16°C° 0.1 mm 2 mps 739 mmHg 83%
    01:00 +16°C° 0.1 mm 2 mps 738 mmHg 87%
    02:00 +16°C° 0 mm 2 mps 738 mmHg 91%
    03:00 +16°C° 1.5 mm 2 mps 737 mmHg 93%
    04:00 +16°C° 1.5 mm 2 mps 737 mmHg 95%
    05:00 +17°C° 1.5 mm 2 mps 737 mmHg 97%
    06:00 +17°C° 1.3 mm 3 mps 736 mmHg 97%
    07:00 +18°C° 1.3 mm 3 mps 736 mmHg 96%
    08:00 +19°C° 0 mm 3 mps 736 mmHg 96%
    09:00 +19°C° 0.2 mm 3 mps 736 mmHg 93%
    10:00 +20°C° 0.2 mm 3 mps 736 mmHg 91%
    11:00 +21°C° 0.2 mm 3 mps 736 mmHg 89%
    12:00 +21°C° 0.3 mm 3 mps 736 mmHg 87%
    13:00 +21°C° 0.3 mm 3 mps 736 mmHg 85%
    14:00 +22°C° 0.3 mm 3 mps 736 mmHg 84%
    15:00 +21°C° 0.3 mm 3 mps 736 mmHg 84%
    16:00 +21°C° 0.3 mm 3 mps 737 mmHg 85%
    17:00 +21°C° 0.3 mm 3 mps 737 mmHg 86%
    18:00 +19°C° 0.1 mm 3 mps 737 mmHg 89%
    19:00 +18°C° 0.1 mm 2 mps 737 mmHg 93%
    20:00 +17°C° 0.1 mm 2 mps 737 mmHg 96%
    21:00 +16°C° 0 mm 1 mps 738 mmHg 96%
    22:00 +16°C° 0 mm 1 mps 738 mmHg 97%
    23:00 +15°C° 0 mm 1 mps 738 mmHg 97%

    Tomorrow, 16 August, Thursday

    Time Temperature Precipitation Wind Pressure Humidity
    00:00 +15°C° 0 mm 1 mps 738 mmHg 97%
    01:00 +15°C° 0 mm 1 mps 739 mmHg 98%
    02:00 +15°C° 0 mm 1 mps 739 mmHg 98%
    03:00 +15°C° 0 mm 1 mps 739 mmHg 98%
    04:00 +14°C° 0 mm 1 mps 739 mmHg 98%
    05:00 +14°C° 0 mm 1 mps 740 mmHg 99%
    06:00 +15°C° 0 mm 1 mps 740 mmHg 96%
    07:00 +16°C° 0 mm 1 mps 741 mmHg 94%
    08:00 +18°C° 0 mm 1 mps 741 mmHg 92%
    09:00 +19°C° 0.1 mm 1 mps 741 mmHg 89%
    10:00 +20°C° 0.1 mm 1 mps 742 mmHg 87%
    11:00 +20°C° 0.1 mm 1 mps 742 mmHg 84%
    12:00 +20°C° 0.2 mm 2 mps 742 mmHg 81%
    13:00 +21°C° 0.2 mm 2 mps 742 mmHg 78%
    14:00 +21°C° 0.2 mm 2 mps 742 mmHg 74%
    15:00 +21°C° 0.2 mm 2 mps 743 mmHg 74%
    16:00 +21°C° 0.2 mm 2 mps 743 mmHg 74%
    17:00 +21°C° 0.2 mm 2 mps 743 mmHg 74%
    18:00 +20°C° 0 mm 2 mps 743 mmHg 80%
    19:00 +18°C° 0 mm 2 mps 744 mmHg 85%
    20:00 +16°C° 0 mm 2 mps 744 mmHg 90%
    21:00 +16°C° 0 mm 2 mps 744 mmHg 91%
    22:00 +15°C° 0 mm 1 mps 745 mmHg 92%
    23:00 +14°C° 0 mm 1 mps 745 mmHg 92%

    Day after tomorrow, 17 August, Friday

    Time Temperature Precipitation Wind Pressure Humidity
    00:00 +14°C° 0 mm 1 mps 745 mmHg 93%
    01:00 +13°C° 0 mm 2 mps 745 mmHg 93%
    02:00 +13°C° 0 mm 2 mps 745 mmHg 94%
    03:00 +12°C° 0 mm 2 mps 746 mmHg 94%
    04:00 +12°C° 0 mm 2 mps 746 mmHg 94%
    05:00 +12°C° 0 mm 2 mps 746 mmHg 95%
    06:00 +14°C° 0 mm 2 mps 746 mmHg 88%
    07:00 +16°C° 0 mm 2 mps 747 mmHg 81%
    08:00 +18°C° 0 mm 2 mps 747 mmHg 73%
    09:00 +19°C° 0 mm 2 mps 747 mmHg 66%
    10:00 +21°C° 0 mm 3 mps 747 mmHg 60%
    11:00 +22°C° 0 mm 3 mps 747 mmHg 53%
    12:00 +24°C° 0 mm 3 mps 747 mmHg 51%
    13:00 +25°C° 0 mm 2 mps 746 mmHg 49%
    14:00 +25°C° 0 mm 2 mps 746 mmHg 47%
    15:00 +25°C° 0 mm 2 mps 746 mmHg 51%
    16:00 +24°C° 0 mm 2 mps 746 mmHg 54%
    17:00 +24°C° 0 mm 2 mps 746 mmHg 57%
    18:00 +21°C° 0 mm 2 mps 746 mmHg 65%
    19:00 +19°C° 0 mm 2 mps 746 mmHg 73%
    20:00 +16°C° 0 mm 2 mps 746 mmHg 80%
    21:00 +16°C° 0 mm 2 mps 746 mmHg 82%
    22:00 +15°C° 0 mm 2 mps 746 mmHg 84%
    23:00 +14°C° 0 mm 2 mps 746 mmHg 87%

    18 August, Saturday

    Time Temperature Precipitation Wind Pressure Humidity
    00:00 +14°C° 0 mm 2 mps 746 mmHg 87%
    01:00 +13°C° 0 mm 2 mps 746 mmHg 87%
    02:00 +13°C° 0 mm 2 mps 746 mmHg 87%
    03:00 +13°C° 0 mm 2 mps 746 mmHg 88%
    04:00 +13°C° 0 mm 2 mps 746 mmHg 89%
    05:00 +12°C° 0 mm 2 mps 746 mmHg 89%
    06:00 +15°C° 0 mm 2 mps 746 mmHg 82%
    07:00 +17°C° 0 mm 2 mps 747 mmHg 75%
    08:00 +19°C° 0 mm 2 mps 747 mmHg 68%
    09:00 +21°C° 0 mm 2 mps 747 mmHg 61%
    10:00 +22°C° 0 mm 3 mps 747 mmHg 55%
    11:00 +25°C° 0 mm 3 mps 746 mmHg 48%
    12:00 +26°C° 0 mm 3 mps 746 mmHg 47%
    13:00 +26°C° 0 mm 3 mps 746 mmHg 46%
    14:00 +27°C° 0 mm 3 mps 745 mmHg 45%
    15:00 +26°C° 0 mm 3 mps 745 mmHg 49%
    16:00 +26°C° 0 mm 2 mps 745 mmHg 54%
    17:00 +25°C° 0 mm 2 mps 745 mmHg 58%
    18:00 +23°C° 0 mm 2 mps 745 mmHg 65%
    19:00 +20°C° 0 mm 2 mps 745 mmHg 73%
    20:00 +18°C° 0 mm 2 mps 745 mmHg 80%
    21:00 +18°C° 0 mm 2 mps 745 mmHg 81%
    22:00 +17°C° 0 mm 2 mps 744 mmHg 82%
    23:00 +17°C° 0 mm 3 mps 744 mmHg 84%

    19 August, Sunday

    Time Temperature Precipitation Wind Pressure Humidity
    00:00 +16°C° 0 mm 3 mps 744 mmHg 85%
    01:00 +16°C° 0 mm 3 mps 744 mmHg 86%
    02:00 +14°C° 0 mm 3 mps 744 mmHg 87%
    03:00 +14°C° 0 mm 3 mps 744 mmHg 88%
    04:00 +14°C° 0 mm 3 mps 743 mmHg 89%
    05:00 +14°C° 0 mm 3 mps 743 mmHg 90%
    06:00 +16°C° 0.2 mm 3 mps 743 mmHg 87%
    07:00 +18°C° 0.2 mm 3 mps 743 mmHg 85%
    08:00 +19°C° 0.2 mm 4 mps 742 mmHg 83%
    09:00 +20°C° 0.1 mm 4 mps 742 mmHg 81%
    10:00 +21°C° 0.1 mm 4 mps 742 mmHg 79%
    11:00 +22°C° 0.1 mm 4 mps 741 mmHg 77%
    12:00 +22°C° 0.6 mm 4 mps 741 mmHg 80%
    13:00 +22°C° 0.6 mm 4 mps 741 mmHg 83%
    14:00 +22°C° 0.6 mm 3 mps 740 mmHg 85%
    15:00 +22°C° 0.9 mm 3 mps 740 mmHg 86%
    16:00 +21°C° 0.9 mm 3 mps 740 mmHg 87%
    17:00 +21°C° 0.9 mm 3 mps 740 mmHg 88%
    18:00 +20°C° 0.3 mm 3 mps 740 mmHg 91%
    19:00 +18°C° 0.3 mm 2 mps 741 mmHg 93%
    20:00 +17°C° 0.3 mm 2 mps 741 mmHg 95%
    21:00 +16°C° 0 mm 2 mps 741 mmHg 95%
    22:00 +16°C° 0 mm 2 mps 741 mmHg 96%
    23:00 +15°C° 0 mm 2 mps 741 mmHg 97%

    20 August, Monday

    Time Temperature Precipitation Wind Pressure Humidity
    00:00 +15°C° 0 mm 2 mps 741 mmHg 97%
    01:00 +14°C° 0 mm 2 mps 741 mmHg 97%
    02:00 +14°C° 0 mm 2 mps 742 mmHg 98%
    03:00 +13°C° 0 mm 2 mps 742 mmHg 98%
    04:00 +12°C° 0 mm 2 mps 742 mmHg 98%
    05:00 +12°C° 0 mm 1 mps 742 mmHg 98%
    06:00 +13°C° 0 mm 2 mps 742 mmHg 95%
    07:00 +14°C° 0 mm 2 mps 743 mmHg 93%
    08:00 +15°C° 0 mm 2 mps 743 mmHg 90%
    09:00 +17°C° 0 mm 2 mps 743 mmHg 79%
    10:00 +18°C° 0 mm 2 mps 743 mmHg 68%
    11:00 +20°C° 0 mm 2 mps 743 mmHg 58%
    12:00 +20°C° 0 mm 2 mps 743 mmHg 54%
    13:00 +21°C° 0 mm 2 mps 743 mmHg 51%
    14:00 +21°C° 0 mm 2 mps 743 mmHg 47%
    15:00 +21°C° 0 mm 2 mps 743 mmHg 50%
    16:00 +21°C° 0 mm 2 mps 743 mmHg 53%
    17:00 +20°C° 0 mm 2 mps 743 mmHg 56%
    18:00 +20°C° 0 mm 1 mps 743 mmHg 61%
    19:00 +18°C° 0 mm 1 mps 743 mmHg 66%
    20:00 +15°C° 0 mm 1 mps 743 mmHg 71%
    21:00 +15°C° 0 mm 1 mps 743 mmHg 73%
    22:00 +14°C° 0 mm 1 mps 742 mmHg 74%
    23:00 +13°C° 0 mm 1 mps 742 mmHg 76%
    Show more